, OR

(GMT )
Tillamook

Weather History for KTMK - December, 2013

Change the Weather History Date:

Thursday, December 19, 2013

  Actual Average Record
Temperature  
Mean Temperature 32 °F -  
Max Temperature 41 °F - - ()
Min Temperature 24 °F - - ()
Degree Days  
Heating Degree Days 32    
Moisture  
Dew Point 30 °F    
Average Humidity 95    
Maximum Humidity 100    
Minimum Humidity 65    
Precipitation  
Precipitation 0.00 in - - ()
Sea Level Pressure  
Sea Level Pressure 30.28 in    
Wind  
Wind Speed 0 mph (North)    
Max Wind Speed 0 mph    
Max Gust Speed -    
Visibility 7 miles    
Events Fog    
Averages and records for this station are not official NWS values.
T = Trace of Precipitation, MM = Missing Value Source: NWS Daily Summary

Daily Weather History Graph

Daily Weather History Graph

Search for Another Location

Airport or City:

Trip Planner

Search our weather history database for the weather conditions in past years. The results will help you decide how hot, cold, wet, or windy it might be!

Date:

Astronomy

Dec. 19, 2013 Rise Set
Actual Time 8:51 AM MST 5:34 PM MST
Civil Twilight 8:16 AM MST 6:08 PM MST
Nautical Twilight 7:39 AM MST 6:45 PM MST
Astronomical Twilight 7:03 AM MST 7:21 PM MST
Moon 8:11 PM MST (12/19) 10:07 AM MST (12/19)
Length of Visible Light 9h 51m
Length of Day
8h 43m
Waning Gibbous, 95% of the Moon is Illuminated
Dec 19
Waning Gibbous
Dec 25
Last Quarter
Jan 1
New
Jan 7
First Quarter
Jan 15
Full

Hourly Weather History & Observations

Time (MST) Temp. Dew Point Humidity Pressure Visibility Wind Dir Wind Speed Gust Speed Precip Events Conditions
12:15 AM 32.0 °F 32.0 °F 100% 30.18 in 10.0 mi Calm Calm - N/A   Scattered Clouds
12:35 AM 32.0 °F 32.0 °F 100% 30.18 in 10.0 mi Calm Calm - N/A   Clear
12:55 AM 32.0 °F 32.0 °F 100% 30.18 in 10.0 mi Calm Calm - N/A   Clear
1:15 AM 32.0 °F 32.0 °F 100% 30.18 in 10.0 mi Calm Calm - N/A   Clear
1:35 AM 30.2 °F 30.2 °F 100% 30.19 in 0.8 mi Calm Calm - N/A   Mist
1:55 AM 30.2 °F 30.2 °F 100% 30.20 in 2.5 mi Calm Calm - N/A   Clear
2:15 AM 30.2 °F 30.2 °F 100% 30.21 in 1.0 mi Calm Calm - N/A   Mist
2:35 AM 30.2 °F 30.2 °F 100% 30.21 in 1.5 mi Calm Calm - N/A   Mist
2:55 AM 28.4 °F 28.4 °F 100% 30.22 in 0.2 mi Calm Calm - N/A Fog Light Freezing Fog
3:15 AM 28.4 °F 28.4 °F 100% 30.22 in 0.5 mi Calm Calm - N/A Fog Light Freezing Fog
3:35 AM 28.4 °F 28.4 °F 100% 30.23 in 0.5 mi Calm Calm - N/A Fog Light Freezing Fog
3:55 AM 28.4 °F 28.4 °F 100% 30.24 in 0.2 mi Calm Calm - N/A Fog Light Freezing Fog
4:15 AM 28.4 °F 28.4 °F 100% 30.23 in 0.2 mi Calm Calm - N/A Fog Light Freezing Fog
4:35 AM 28.4 °F 28.4 °F 100% 30.24 in 0.8 mi Calm Calm - N/A   Overcast
4:55 AM 28.4 °F 28.4 °F 100% 30.25 in 0.2 mi Calm Calm - N/A Fog Light Freezing Fog
5:15 AM 28.4 °F 28.4 °F 100% 30.26 in 0.2 mi Calm Calm - N/A Fog Light Freezing Fog
5:35 AM 28.4 °F 28.4 °F 100% 30.27 in 0.2 mi Calm Calm - N/A Fog Light Freezing Fog
5:55 AM 28.4 °F 28.4 °F 100% 30.27 in 0.2 mi Calm Calm - N/A Fog Light Freezing Fog
6:15 AM 28.4 °F 28.4 °F 100% 30.27 in 0.2 mi Calm Calm - N/A Fog Light Freezing Fog
6:35 AM 26.6 °F 26.6 °F 100% 30.27 in 4.0 mi Calm Calm - N/A   Mostly Cloudy
6:55 AM 26.6 °F 26.6 °F 100% 30.28 in 5.0 mi Calm Calm - N/A   Scattered Clouds
7:15 AM 28.4 °F 28.4 °F 100% 30.27 in 10.0 mi Calm Calm - N/A   Clear
7:35 AM 26.6 °F 26.6 °F 100% 30.28 in 10.0 mi Calm Calm - N/A   Clear
7:55 AM 28.4 °F 28.4 °F 100% 30.28 in 10.0 mi Calm Calm - N/A   Clear
8:15 AM 26.6 °F 26.6 °F 100% 30.29 in 5.0 mi Calm Calm - N/A   Clear
8:35 AM 26.6 °F 26.6 °F 100% 30.30 in 7.0 mi Calm Calm - N/A   Clear
8:55 AM 26.6 °F 26.6 °F 100% 30.30 in 7.0 mi Calm Calm - N/A   Clear
9:15 AM 26.6 °F 26.6 °F 100% 30.30 in 7.0 mi Calm Calm - N/A   Clear
9:35 AM 24.8 °F 24.8 °F 100% 30.31 in 7.0 mi Calm Calm - N/A   Clear
9:55 AM 26.6 °F 26.6 °F 100% 30.32 in 7.0 mi Calm Calm - N/A   Clear
10:15 AM 30.2 °F 30.2 °F 100% 30.32 in 10.0 mi Calm Calm - N/A   Clear
10:35 AM 30.2 °F 30.2 °F 100% 30.32 in 7.0 mi Calm Calm - N/A   Clear
10:55 AM 30.2 °F 30.2 °F 100% 30.33 in 7.0 mi Calm Calm - N/A   Clear
11:15 AM 32.0 °F 32.0 °F 100% 30.34 in 10.0 mi Calm Calm - N/A   Clear
11:35 AM 32.0 °F 32.0 °F 100% 30.34 in 10.0 mi Calm Calm - N/A   Clear
11:55 AM 32.0 °F 32.0 °F 100% 30.35 in 10.0 mi Calm Calm - N/A   Clear
12:15 PM 33.8 °F 33.8 °F 100% 30.35 in 10.0 mi Calm Calm - N/A   Clear
12:35 PM 33.8 °F 33.8 °F 100% 30.34 in 10.0 mi Calm Calm - N/A   Clear
12:55 PM 35.6 °F 32.0 °F 87% 30.34 in 10.0 mi Calm Calm - N/A   Clear
1:15 PM 37.4 °F 30.2 °F 75% 30.34 in 10.0 mi Calm Calm - N/A   Clear
1:35 PM 37.4 °F 32.0 °F 81% 30.33 in 10.0 mi Calm Calm - N/A   Clear
1:55 PM 39.2 °F 30.2 °F 70% 30.31 in 10.0 mi Calm Calm - N/A   Clear
2:15 PM 39.2 °F 32.0 °F 75% 30.30 in 10.0 mi Calm Calm - N/A   Clear
2:35 PM 41.0 °F 30.2 °F 65% 30.28 in 10.0 mi Calm Calm - N/A   Clear
2:55 PM 41.0 °F 30.2 °F 65% 30.28 in 10.0 mi Calm Calm - N/A   Clear
3:15 PM 41.0 °F 32.0 °F 70% 30.28 in 10.0 mi Calm Calm - N/A   Clear
3:35 PM 41.0 °F 30.2 °F 65% 30.30 in 10.0 mi Calm Calm - N/A   Clear
3:55 PM 39.2 °F 32.0 °F 75% 30.30 in 10.0 mi Calm Calm - N/A   Clear
4:15 PM 41.0 °F 30.2 °F 65% 30.31 in 10.0 mi Calm Calm - N/A   Scattered Clouds
4:35 PM 39.2 °F 32.0 °F 75% 30.30 in 10.0 mi Calm Calm - N/A   Scattered Clouds
4:55 PM 37.4 °F 33.8 °F 87% 30.30 in 10.0 mi Calm Calm - N/A   Clear
5:15 PM 35.6 °F 33.8 °F 93% 30.29 in 10.0 mi Calm Calm - N/A   Clear
5:35 PM 35.6 °F 33.8 °F 93% 30.28 in 10.0 mi Calm Calm - N/A   Clear
5:55 PM 33.8 °F 33.8 °F 100% 30.29 in 10.0 mi Calm Calm - N/A   Scattered Clouds
6:15 PM 33.8 °F 32.0 °F 93% 30.29 in 10.0 mi Calm Calm - N/A   Mostly Cloudy
6:35 PM 33.8 °F 32.0 °F 93% 30.30 in 10.0 mi Calm Calm - N/A   Scattered Clouds
6:55 PM 32.0 °F 32.0 °F 100% 30.30 in 10.0 mi Calm Calm - N/A   Clear
7:15 PM 32.0 °F 32.0 °F 100% 30.29 in 10.0 mi Calm Calm - N/A   Clear
7:35 PM 32.0 °F 32.0 °F 100% 30.27 in 10.0 mi Calm Calm - N/A   Clear
7:55 PM 32.0 °F 32.0 °F 100% 30.27 in 10.0 mi Calm Calm - N/A   Clear
8:15 PM 32.0 °F 32.0 °F 100% 30.27 in 10.0 mi Calm Calm - N/A   Clear
8:35 PM 32.0 °F 32.0 °F 100% 30.27 in 10.0 mi Calm Calm - N/A   Clear
8:55 PM 32.0 °F 32.0 °F 100% 30.26 in 10.0 mi Calm Calm - N/A   Clear
9:15 PM 32.0 °F 32.0 °F 100% 30.26 in 10.0 mi Calm Calm - N/A   Clear
9:35 PM 32.0 °F 32.0 °F 100% 30.26 in 10.0 mi Calm Calm - N/A   Clear
9:55 PM 32.0 °F 32.0 °F 100% 30.26 in 7.0 mi Calm Calm - N/A   Scattered Clouds
10:15 PM 32.0 °F 32.0 °F 100% 30.27 in 10.0 mi Calm Calm - N/A   Overcast
10:35 PM 32.0 °F 32.0 °F 100% 30.27 in 10.0 mi Calm Calm - N/A   Mostly Cloudy
10:55 PM 32.0 °F 32.0 °F 100% 30.26 in 10.0 mi Calm Calm - N/A   Mostly Cloudy
11:15 PM 32.0 °F 32.0 °F 100% 30.26 in 10.0 mi Calm Calm - N/A   Overcast
11:35 PM 32.0 °F 32.0 °F 100% 30.26 in 7.0 mi Calm Calm - N/A   Overcast
11:55 PM 32.0 °F 32.0 °F 100% 30.25 in 10.0 mi Calm Calm - N/A   Mostly Cloudy